User: anonymous
Location: Caltech
(34.1382°N, 118.1253°W)
Time: 16:43:14
(UTC-07:00)
Language:

Saudisat 1A - Orbit

View from above orbital plane
View from above orbital plane
View from above satellite
View from above satellite

Ground track
Ground track

The orbit data is extracted from the following two-line orbital elements,

1 26546U 00057B   14244.57072836  .00000833  00000-0  10646-3 0  3491
2 26546 064.5554 282.9960 0005151 265.2552 094.7968 14.88141933754763
Epoch (UTC): 01 September 2014 13:41:50
Eccentricity: 0.0005151
inclination: 64.5554°
perigee height: 600 km
apogee height: 607 km
right ascension of ascending node: 282.9960°
argument of perigee: 265.2552°
revolutions per day: 14.88141933
mean anomaly at epoch: 94.7968°
orbit number at epoch: 75476

The dashed part of the orbit path shows where the satellite is in the earth's shadow,  

DLR